Find Starlink 30347

NORAD ID: 57699 Int'l Des: 2023-129 Owner: SPXS Country: US Constellation: starlink operational
LEOCIRCULAR

現在のビュー

3D地球を読み込み中...

About Starlink 30347

Starlink 30347 (NORAD 57699) is a starlink constellation satellite (v2 mini) launched Aug 27, 2023 by SPXS of US. It operates in LEO, CIRCULAR orbit with a mass of 730.00 kg.

次回通過

Passes for default location (London). Set your location on the main map for personalized predictions.

高度履歴

Loading altitude history...

軌道要素

1 57699U 23129B 26237.05472682 -.00000800 00000-0 -19552-4 0 9993
2 57699 43.0023 235.8357 0001357 274.5310 85.5387 15.27574790166568
Epoch: Aug 25, 2026 • Age: 13 hours

現在のステータス

高度 486.8 km
遠地点 / 近地点 N/A
速度 7.63 km/s
衛星直下点 41.93°N, 119.15°E
打ち上げ日 Aug 27, 2023
運用期間 2.9 years
タイプ internet

技術仕様

分類 Payload
質量 730.00 kg
乾燥質量 700.00 kg
総質量 730.00 kg
長さ 0.30 m
直径 4.10 m
スパン 29.00 m
形状 Box + pan
製造者 SPXS
バスタイプ Starlink V2M
フェーズステータス In Orbit
所有者/国 SPXS/US

Most Searched